Orbital Elements at Epoch 2459000.5 (2020-May-31.0) TDB
Reference: JPL 21 (heliocentric ecliptic J2000)
Element | Value | Uncertainty (1-sigma) | Units |
e | .1993960893501005 | 3.2363e-08 | |
a | 2.286583580592217 | 7.5468e-09 | au |
q | 1.830647756649979 | 7.3479e-08 | au |
i | 5.420782499090858 | 4.8049e-06 | deg |
node | 225.1122993858712 | 3.762e-05 | deg |
peri | 138.3085690213671 | 4.0201e-05 | deg |
M | 99.15428962764761 | 1.3838e-05 | deg |
tp | 2458652.653166339340 (2019-Jun-18.15316634) | 4.769e-05 | TDB |
period | 1262.929325479436 3.46 | 6.2524e-06 1.712e-08 | d yr |
n | .2850515802721866 | 1.4112e-09 | deg/d |
Q | 2.742519404534456 | 9.0516e-09 | au |
|
| | Orbit Determination Parameters
Additional Information
|